Powrót do katalogu

ATLAS 5 CENTAUR R/B

AktywnyHEO
NORAD 37774·ROCKET BODY·🇺🇸 United States

Wystrzelony Aug 5, 2011 z Cape Canaveral Space Force Station

Loading…

Następne Przeloty (najbliższe 24 godziny)

TLE

NieaktualneSource: Space-Track

Epoka: Aug 5, 2011, 22:14 UTC

1 37774U 11040B   11217.92695602 -.00010587 +00000-0 +00000-0 0  9997
2 37774 046.1373 048.0657 9000000 218.7772 083.3600 00.10000046000008

Śledź ATLAS 5 CENTAUR R/B w czasie rzeczywistym z AllMySat

Download on the App Store